Simultaneous Nadir Overpasses (SNOs) Predictions

Prediction of SNOs between NOAA-19 and NPP Satellite Orbit:

Table of predicted SNOs for the next 14.0 days since TLE Epoch: 2/6/2015
Index Date (NOAA-19) Time (NOAA-19) Lat,Lon (NOAA-19) SZA (NOAA-19 ) Date (NPP) Time (NPP) Lat,Lon (NPP) SZA (NPP ) Distance(km) Time Diff (sec)
1 02/16/2015 08:36:19 80.97, 0.47 96.97 02/16/2015 08:37:15 80.98, 0.38 96.95 1.51 56
2 02/16/2015 09:27:15 -80.97, 167.98 83.08 02/16/2015 09:27:59 -80.96, 168.02 83.12 0.90 44
3 02/16/2015 10:18:21 80.96, -24.69 96.89 02/16/2015 10:18:44 80.96, -24.68 96.88 0.25 23
4 02/16/2015 11:09:18 -80.97, 142.46 83.11 02/16/2015 11:09:29 -80.96, 142.60 83.13 2.50 11
5 02/16/2015 12:00:24 80.97, -50.22 96.87 02/16/2015 12:00:14 80.97, -50.10 96.86 1.99 10
6 02/16/2015 12:51:19 -80.95, 117.67 83.23 02/16/2015 12:50:58 -80.95, 117.53 83.20 2.41 21
7 02/16/2015 13:42:25 80.95, -75.00 96.75 02/16/2015 13:41:43 80.95, -75.17 96.79 2.94 42
8 02/16/2015 14:33:22 -80.95, 92.15 83.26 02/16/2015 14:32:28 -80.95, 92.11 83.22 0.73 54




NCC Satellite Simultaneous Nadir Overpasses (SNOs) Prediction Service
